Hourly Data Report for August 23, 2021

LYNN LAKE
MANITOBA
Current Station Operator: NAVCAN

56°51'50.000" N
101°04'34.000" W
356.60 m
5061645
71078
YYL

Download Data

Hourly Data (August 2021)
Hourly Data Report for August 23, 2021
TIME
LST
Temp Definition
°C
Dew Point Definition
°C
Rel Hum Definition
%
Precip. Amount Definition
mm

Wind Dir Definition
10's deg

Wind Spd Definition
km/h
Visibility Definition
km
Stn Press Definition
kPa
Hmdx Definition


Wind Chill Definition


Weather Definition


00:00 10.6 7.7 82 0.0 5 13 16.1 97.12     LegendNANA
01:00 10.5 8.1 85 0.0 2 11 16.1 97.13     LegendNANA
02:00 10.0 7.8 86 0.0 3 11 16.1 97.14     LegendNANA
03:00 9.8 7.4 85 0.0 3 18 16.1 97.18     LegendNANA
04:00 9.3 7.6 89 0.0 3 15 16.1 97.23     LegendNANA
05:00 9.0 7.5 90 0.0 4 13 16.1 97.27     LegendNANA
06:00 8.7 7.3 91 0.0 3 13 16.1 97.30     LegendNANA
07:00 8.8 7.1 89 0.0 4 11 16.1 97.35     LegendNANA
08:00 8.9 6.8 86 0.0 4 11 16.1 97.36     LegendNANA
09:00 9.3 6.6 83 0.0 6 15 16.1 97.38     LegendNANA
10:00 10.3 6.4 76 0.0 2 15 16.1 97.39     LegendNANA
11:00 10.9 5.2 68 0.0 4 13 16.1 97.43     LegendNANA
12:00 10.5 5.9 73 0.0 3 11 16.1 97.45     LegendNANA
13:00 11.6 4.7 63 0.0 34 8 16.1 97.46     LegendNANA
14:00 11.1 4.9 66 0.0 3 13 16.1 97.49     LegendNANA
15:00 11.2 5.0 65 0.0 36 13 16.1 97.50     LegendNANA
16:00 11.0 4.5 64 0.0 4 9 16.1 97.52     LegendNANA
17:00 10.8 4.8 66 0.0 2 11 16.1 97.51     LegendNANA
18:00 10.6 4.6 66 0.0 5 13 16.1 97.51     LegendNANA
19:00 10.5 4.3 65 0.0 7 9 16.1 97.53     LegendNANA
20:00 10.0 5.2 72 0.0 LegendMM 4 16.1 97.54     LegendNANA
21:00 9.5 4.9 73 0.0 6 9 16.1 97.60     LegendNANA
22:00 9.9 4.6 69 0.0 12 4 16.1 97.64     LegendNANA
23:00 7.5 4.6 82 0.0 LegendMM 4 16.1 97.62     LegendNANA

Notes on Data Quality.

Legend

  • E = Estimated
  • M = Missing
  • NA = Not Available*
  • [empty] = Indicates an unobserved value
Date modified: